Theta_e
310 308 307 308 308 308 308 308 305 300 303 311 312 317 319 318 318 318 317 319 318 318 318 319 320 321 321 321 321 320 319 318 318 318 317 317 318 317
308 307 308 308 308 308 308 308 307 305 303 311 312 314 315 315 317 315 315 316 316 315 315 315 315 316 317 317 316 316 315 315 315 316 315 314 314 314
309 307 307 307 307 308 308 308 308 308 304 309 311 311 309 308 309 311 313 311 312 313 313 312 312 312 312 313 313 313 313 312 312 312 312 312 312 313
307 306 306 309 311 313 308 308 309 310 308 305 305 306 306 307 306 307 307 308 308 310 309 309 308 308 308 308 308 308 309 309 309 309 310 311 311 311
310 310 311 311 309 311 312 310 309 311 309 305 303 304 304 305 308 307 307 307 307 309 308 308 307 306 305 305 305 305 305 305 305 306 307 307 307 307
311 311 309 309 308 311 311 312 310 309 305 303 301 301 302 303 303 302 299 297 300 304 306 306 306 307 306 305 304 303 302 302 303 303 303 303 303 303
306 308 311 312 312 312 314 313 308 305 303 301 300 301 299 299 298 299 296 294 296 298 298 301 303 304 304 305 305 303 302 302 302 302 301 301 300 301
305 308 310 308 313 312 313 311 310 305 302 301 301 299 299 299 297 299 297 295 295 303 300 299 303 300 301 303 302 302 302 302 301 301 300 300 299 299
307 308 308 308 312 311 309 309 308 307 306 304 302 299 298 298 297 298 299 300 298 301 301 297 300 298 299 300 301 301 302 301 301 300 299 299 297 297
310 310 311 309 313 311 309 307 307 307 307 307 305 304 304 303 305 304 304 302 303 303 305 297 299 297 301 301 299 300 300 300 300 299 299 296 295 295
310 307 313 316 304 306 311 308 307 307 307 305 304 302 301 302 305 303 302 302 301 302 304 300 300 300 301 301 300 298 298 298 297 297 296 294 294 295
313 312 300 309 301 304 314 310 308 307 305 305 305 304 307 305 304 308 305 303 301 300 306 301 302 302 298 301 301 302 300 296 296 296 296 295 295 303
308 309 310 298 300 301 306 315 311 309 307 309 310 310 308 308 308 309 309 308 304 302 306 306 304 303 300 297 299 301 301 300 301 300 295 295 295 297
306 308 305 296 297 299 306 299 300 306 308 308 306 307 307 307 309 311 310 314 312 309 311 311 301 301 299 298 297 300 301 302 303 302 302 295 294 294
305 300 298 298 298 300 299 300 304 311 309 307 307 309 309 308 309 308 314 315 314 313 312 307 304 304 302 300 299 299 300 302 303 303 304 304 304 305
308 307 303 303 302 306 310 310 313 312 309 308 308 307 308 307 307 308 309 310 309 307 310 309 309 307 303 303 302 301 302 299 303 303 304 304 305 306
310 312 309 308 308 310 311 311 311 311 310 310 307 306 307 307 307 312 311 310 307 304 303 306 310 309 307 307 303 303 302 302 303 303 305 304 306 307
311 310 308 308 307 308 309 309 310 308 308 308 308 308 304 308 310 311 312 309 305 304 303 305 305 304 304 305 301 305 306 304 304 306 307 305 305 309
314 310 309 309 307 309 309 308 307 306 308 308 305 304 309 309 308 308 308 306 304 304 305 305 305 305 302 300 304 296 308 307 306 304 306 306 305 307
310 309 308 308 310 309 310 308 308 307 307 304 305 310 309 308 306 305 306 305 305 305 305 307 308 309 304 302 301 304 292 308 307 305 305 307 305 297
312 312 313 311 310 310 307 307 308 305 307 309 309 309 309 307 305 305 305 296 299 305 303 304 307 288 308 307 303 303 305 294 302 309 309 305 305 306
312 312 312 313 313 313 313 308 306 305 308 308 310 309 307 307 306 306 305 305 305 305 303 303 307 306 306 304 302 303 306 307 300 298 297 298 304 301
313 314 314 314 314 313 312 309 308 310 312 311 310 309 309 307 308 308 308 308 307 306 306 305 307 308 306 307 301 307 304 306 309 308 310 297 297 297
Wind_Speed
9 6 5 5 5 6 4 3 3 3 7 4 2 2 6 6 11 10 10 21 22 21 22 22 23 24 24 25 26 27 27 28 19 19 19 14 15 14
4 7 6 5 5 4 4 4 5 4 4 2 2 3 8 7 13 11 14 19 22 23 24 24 24 23 23 22 24 26 24 25 19 18 17 15 14 13
7 6 7 6 5 4 4 5 5 6 5 1 3 6 9 10 9 10 12 11 12 24 24 25 25 24 23 21 22 23 22 21 19 17 15 15 13 13
5 5 7 6 8 7 5 7 6 7 2 2 4 4 9 10 10 13 11 11 11 21 23 23 23 22 21 21 20 19 18 17 16 15 16 16 15 16
8 9 8 7 7 7 8 6 5 5 4 6 6 6 6 7 11 11 14 14 11 22 22 23 22 20 19 17 18 18 18 17 16 15 17 17 16 16
7 7 8 8 9 9 8 8 5 6 11 9 9 9 9 7 7 9 13 8 9 10 18 19 19 22 19 19 18 18 17 16 14 15 14 16 16 16
7 7 7 8 2 8 8 9 10 11 9 9 9 9 9 8 7 5 12 8 8 5 8 8 9 11 11 15 17 15 14 17 15 14 14 14 12 13
6 6 6 10 7 15 17 18 15 14 12 9 9 10 9 10 6 6 11 9 11 8 10 12 9 12 11 10 11 12 14 17 14 13 11 10 11 9
4 5 6 6 12 14 18 20 17 17 16 12 12 11 13 11 9 7 3 7 11 9 10 12 10 10 10 11 16 12 12 12 11 11 10 8 8 9
6 6 7 6 10 13 13 14 13 12 11 8 11 11 12 12 8 8 11 13 10 9 9 11 9 9 9 12 19 17 14 11 9 8 8 8 9 9
7 8 7 9 8 10 13 13 13 12 13 15 16 16 12 7 8 11 9 10 10 9 7 9 9 9 9 9 10 16 14 12 12 9 7 7 8 11
7 7 11 7 7 8 14 11 12 12 13 13 12 12 11 9 7 5 4 8 9 8 6 8 8 7 9 8 7 7 9 13 11 9 10 8 9 6
5 4 6 6 7 9 9 9 13 11 14 11 10 9 7 5 4 5 5 2 5 7 6 4 5 4 8 8 8 7 7 7 7 9 11 11 11 12
5 5 5 7 8 9 8 14 14 12 8 10 7 7 6 6 5 5 4 4 8 9 6 4 6 8 9 9 8 7 7 6 7 8 8 7 7 11
5 6 10 12 13 12 13 12 10 9 8 7 7 7 4 5 6 5 6 10 10 7 6 9 9 8 8 9 9 7 7 7 6 6 5 6 6 5
8 8 9 10 11 9 8 7 6 7 7 7 6 6 6 4 6 3 7 8 8 9 10 9 9 9 8 7 7 7 4 5 5 4 4 4 3 2
5 5 5 6 6 7 7 7 7 8 7 8 7 6 6 8 7 8 8 7 8 9 9 7 7 7 7 5 6 6 6 5 4 5 3 3 2 1
5 5 6 6 6 6 7 7 8 8 7 6 7 8 6 8 8 7 6 7 8 8 8 7 7 7 6 5 7 4 3 4 4 3 1 2 2 2
8 6 6 7 5 6 7 7 7 6 6 4 8 6 6 8 7 7 6 8 8 8 7 6 5 4 4 7 5 6 1 3 4 3 2 2 2 3
6 6 6 5 6 7 8 7 7 5 8 5 5 7 7 8 8 8 8 9 8 7 6 4 3 1 4 6 6 6 2 3 3 3 3 2 3 5
5 5 5 6 6 7 7 8 8 7 8 8 7 8 8 8 8 7 8 6 4 5 5 4 4 2 3 3 6 5 5 7 6 3 0 4 2 1
5 5 5 5 7 8 9 8 7 8 8 7 7 7 7 8 8 8 8 7 6 6 7 7 5 5 4 4 5 5 3 4 8 9 9 6 6 5
5 5 6 6 7 8 9 9 8 7 7 7 7 7 7 7 6 5 5 5 5 6 7 6 5 3 4 2 2 1 2 4 2 4 3 6 9 12
Wind_Direction
273 254 251 250 247 244 226 206 172 195 253 221 142 93 97 87 88 80 74 72 68 70 71 73 78 83 87 91 93 96 103 101 94 104 106 110 104 93
258 253 257 253 254 237 225 201 204 215 270 175 122 114 100 91 90 84 79 74 73 71 71 72 73 75 79 86 95 97 94 96 106 98 103 98 98 104
280 254 266 258 251 233 210 200 207 211 231 97 53 100 91 94 80 78 79 75 70 72 72 72 73 72 74 80 83 91 96 101 105 108 107 102 102 93
275 268 272 266 245 232 205 212 209 220 181 204 85 99 90 89 95 96 86 80 79 76 77 75 75 78 77 75 79 84 88 92 95 97 99 91 88 85
305 300 286 273 261 239 214 205 196 200 165 133 120 95 90 90 98 87 88 84 85 82 82 82 82 81 82 88 88 86 79 77 80 82 86 88 88 87
306 298 286 261 258 256 234 221 209 156 119 112 112 111 104 83 84 105 91 72 74 71 73 79 83 85 89 87 90 93 88 92 91 86 88 85 85 84
321 305 298 307 313 274 179 177 131 123 122 119 117 113 111 102 91 103 96 95 83 93 98 86 83 84 82 88 91 93 101 98 95 96 86 83 84 83
322 326 352 351 17 100 106 121 134 128 126 126 120 121 111 107 103 98 115 126 104 85 94 80 73 73 58 66 77 100 92 90 93 94 95 89 83 93
341 348 28 9 62 91 92 97 99 105 119 130 125 127 123 132 131 119 106 95 103 118 95 88 71 72 67 62 65 106 108 98 98 92 89 86 87 82
34 21 37 49 79 91 94 101 102 105 114 113 114 124 127 137 145 134 122 115 114 105 106 94 97 88 80 74 59 73 80 86 96 97 90 86 82 81
57 34 52 88 71 103 100 105 100 94 83 89 97 106 116 119 124 132 137 127 118 108 120 108 113 101 91 88 88 75 74 73 67 73 82 103 136 147
60 64 43 76 94 85 120 118 112 113 115 109 107 105 111 100 83 101 93 115 120 118 112 117 129 132 91 78 83 98 103 88 81 77 73 56 354 102
54 59 70 38 95 92 113 126 124 118 117 120 116 121 109 89 97 128 104 54 107 102 129 132 121 121 85 114 93 86 86 113 110 118 97 53 35 17
65 63 64 66 82 91 104 105 108 112 119 121 129 122 129 123 124 111 84 38 69 95 119 90 114 114 115 122 109 98 91 92 90 82 86 105 100 61
71 82 84 81 85 85 103 112 122 122 121 120 129 126 106 110 116 96 108 99 87 81 84 103 106 118 108 104 108 106 108 82 77 95 102 85 76 58
69 69 79 79 75 87 98 91 98 107 115 116 107 96 110 113 120 107 143 139 110 90 81 100 104 106 106 98 105 106 129 121 129 109 104 101 104 69
81 82 78 73 77 83 79 96 106 107 109 117 113 113 125 132 144 166 148 137 121 120 118 106 92 87 85 98 111 115 119 118 121 126 217 130 150 261
99 84 78 81 84 99 106 98 100 102 102 111 138 122 132 148 142 144 133 129 117 122 129 133 138 137 146 109 8 126 140 129 134 145 238 276 163 169
100 87 87 93 90 97 98 98 95 92 98 108 102 132 148 119 154 132 125 123 122 117 120 139 161 175 149 94 110 7 82 134 164 199 227 249 332 358
85 97 104 102 103 120 109 106 109 123 114 112 143 128 126 125 123 124 126 130 129 133 134 143 149 87 52 69 96 86 307 133 179 143 157 200 260 285
86 92 95 99 102 105 107 111 137 121 144 129 122 122 127 125 120 116 103 91 122 134 129 132 86 326 90 153 140 135 144 232 275 310 166 293 338 318
97 99 100 115 117 125 120 123 128 142 130 128 125 124 126 126 123 125 127 134 124 107 99 112 139 153 170 147 110 129 148 166 204 231 248 258 316 329
99 119 123 118 125 129 136 134 130 129 121 123 127 125 136 130 133 129 136 134 135 133 134 128 131 146 125 94 0 64 193 242 277 275 242 188 250 261